User: anonymous   Login
Location: *
(49.3500°N, 12.6000°E)
Time: 21:11:47
(UTC+00:00)
Language:

STARLINK-58 - Orbit

View from above orbital plane
View from above orbital plane
View from above satellite
View from above satellite

Ground track
Ground track

The orbit data is extracted from the following two-line orbital elements,

1 44270U 19029AM  19340.25002315 -.00030683  00000-0 -17508-2 0  9998
2 44270  52.9998  10.7459 0001356 114.0388 115.8733 15.12125812 29734
Epoch (UTC): 06 December 2019 06:00:02
Eccentricity: 0.0001356
inclination: 52.9998°
perigee height: 529 km
apogee height: 530 km
right ascension of ascending node: 10.7459°
argument of perigee: 114.0388°
revolutions per day: 15.12125812
mean anomaly at epoch: 115.8733°
orbit number at epoch: 2973

The dashed part of the orbit path shows where the satellite is in the earth's shadow,  

DLR